Regional Weather Roundup
Issued by NWS Raleigh/Durham, NC

Home | Current Version | Previous Version | Text Only | Print | Product List | Glossary On
Versions: 1 2 3 4 5 6 7 8 9 10 11 12 13 14 15 16 17 18 19 20 21 22 23 24 25 26 27 28 29 30 31 32 33 34 35 36 37 38 39 40 41 42 43 44 45 46 47 48 49 50
556
ASUS42 KRAH 300010
RWRRAH
NORTH CAROLINA WEATHER ROUNDUP
NATIONAL WEATHER SERVICE RALEIGH NC
800 PM EDT SUN MAY 29 2016

NOTE: "FAIR" INDICATES FEW OR NO CLOUDS BELOW 12,000 FEET WITH NO
SIGNIFICANT WEATHER AND/OR OBSTRUCTIONS TO VISIBILITY.

NCZ001-053-055-056-065-067-300100-
WESTERN NORTH CAROLINA

CITY           SKY/WX    TMP DP  RH WIND       PRES   REMARKS
ASHEVILLE      CLOUDY    71  57  61 CALM      30.10F
JEFFERSON      CLOUDY    63  52  68 NW5       30.16S
MORGANTON      CLOUDY    70  63  78 CALM      30.12S
HICKORY        CLOUDY    70  60  70 N3        30.06R
RUTHERFORDTON  CLOUDY    70  61  73 NE6       30.07S
MOUNT AIRY     MOCLDY    69  61  76 E7        30.10S
BOONE          LGT RAIN  61  58  91 CALM      30.16S
$$

NCZ021-022-025-041-071-084-088-300100-
CENTRAL NORTH CAROLINA

CITY           SKY/WX    TMP DP  RH WIND       PRES   REMARKS
CHARLOTTE      MOCLDY    72  61  68 NE14G24   30.04S
GREENSBORO     MOCLDY    68  59  73 N6        30.07S
WINSTON-SALEM  CLOUDY    66  58  75 NE7       30.10R
RALEIGH-DURHAM CLOUDY    70  68  93 SW12      30.04R
FORT BRAGG     LGT RAIN  73  73 100 S3        29.99R
FAYETTEVILLE   CLOUDY    74  71  91 NE3       29.98S
BURLINGTON     CLOUDY    69  63  81 N5        30.06S
LAURINBURG     PTCLDY    74  72  93 NE8       29.99R
$$

NCZ011-015-027-028-043-044-047-080-103-300100-
NORTHEASTERN NORTH CAROLINA

CITY           SKY/WX    TMP DP  RH WIND       PRES   REMARKS
ROCKY MT-WILSO PTCLDY    78  71  79 CALM      30.01R
GREENVILLE     PTCLDY    81  72  74 S7        30.03S
WASHINGTON     CLOUDY    78  72  80 SE5       30.03R
ELIZABETH CITY CLOUDY    77  72  84 S7        30.05R
MANTEO         NOT AVBL
CAPE HATTERAS  CLOUDY    76  74  93 S9        30.05S
$$

NCZ078-087-090-091-093-098-101-300100-
SOUTHEASTERN NORTH CAROLINA

CITY           SKY/WX    TMP DP  RH WIND       PRES   REMARKS
LUMBERTON      MOCLDY    79  70  74 E6        29.97R
GOLDSBORO      NOT AVBL
KINSTON        PTCLDY    81  70  69 SE14      30.02S
KENANSVILLE    LGT RAIN  75  73  92 CALM      30.02R
NEW BERN       CLOUDY    78  71  79 SE5       30.03S
CHERRY POINT   MOCLDY    77  72  84 SE7       30.03S
BEAUFORT       PTCLDY    77  73  87 SE7       30.03S
JACKSONVILLE   CLOUDY    75  71  87 SE6       30.00F
WILMINGTON     PTCLDY    77  71  82 SE5       29.98F
$$





USA.gov is the U.S. government's official web portal to all federal, state and local government web resources and services.